Time,TemperatureF,DewpointF,PressureIn,WindDirection,WindDirectionDegrees,WindSpeedMPH,WindSpeedGustMPH,Humidity,HourlyPrecipIn,Conditions,Clouds,dailyrainin,SoftwareType,DateUTC
2013-01-26 00:00:00,16.7,4.9,29.71,NW,313,0.0,0.0,59,0.00,,,0.00,VWS V14.01,2013-01-26 05:00:00,
2013-01-26 00:01:00,16.7,4.9,29.71,NW,313,0.0,0.0,59,0.00,,,0.00,VWS V14.01,2013-01-26 05:01:00,
2013-01-26 00:06:00,16.7,4.9,29.71,NW,313,0.0,0.0,59,0.00,,,0.00,VWS V14.01,2013-01-26 05:06:00,
2013-01-26 00:11:00,16.7,4.9,11.97,NW,313,0.0,0.0,59,0.00,,,0.00,VWS V14.01,2013-01-26 05:11:00,
2013-01-26 00:16:00,16.5,4.7,29.68,NW,313,0.0,0.0,59,0.00,,,0.00,VWS V14.01,2013-01-26 05:16:00,
2013-01-26 00:21:00,16.5,4.7,29.68,NW,313,0.0,0.0,59,0.00,,,0.00,VWS V14.01,2013-01-26 05:21:00,
2013-01-26 00:26:00,16.5,4.7,29.68,NW,313,0.0,0.0,59,0.00,,,0.00,VWS V14.01,2013-01-26 05:26:00,
2013-01-26 00:31:00,16.5,4.7,29.68,NW,313,0.0,0.0,59,0.00,,,0.00,VWS V14.01,2013-01-26 05:31:00,
2013-01-26 00:36:00,16.5,4.7,29.68,NW,313,0.0,0.0,59,0.00,,,0.00,VWS V14.01,2013-01-26 05:36:00,
2013-01-26 00:41:00,16.5,4.7,29.68,NW,313,0.0,0.0,59,0.00,,,0.00,VWS V14.01,2013-01-26 05:41:00,
2013-01-26 00:46:00,16.5,4.7,29.68,NW,313,0.0,0.0,59,0.00,,,0.00,VWS V14.01,2013-01-26 05:46:00,
2013-01-26 00:51:00,16.5,4.7,29.68,NW,313,0.0,0.0,59,0.00,,,0.00,VWS V14.01,2013-01-26 05:51:00,
2013-01-26 00:56:00,16.5,4.7,29.68,NW,313,0.0,0.0,59,0.00,,,0.00,VWS V14.01,2013-01-26 05:56:00,
2013-01-26 01:01:00,16.5,4.7,29.68,NW,313,0.0,0.0,59,0.00,,,0.00,VWS V14.01,2013-01-26 06:01:00,
2013-01-26 01:06:00,16.5,4.7,29.68,NW,313,0.0,0.0,59,0.00,,,0.00,VWS V14.01,2013-01-26 06:06:00,
2013-01-26 01:11:00,16.5,4.7,29.68,NW,313,0.0,0.0,59,0.00,,,0.00,VWS V14.01,2013-01-26 06:11:00,
2013-01-26 01:16:00,16.5,4.7,29.68,NW,313,0.0,0.0,59,0.00,,,0.00,VWS V14.01,2013-01-26 06:16:00,
2013-01-26 01:21:00,16.3,4.5,29.68,NW,313,0.0,0.0,59,0.00,,,0.00,VWS V14.01,2013-01-26 06:21:00,
2013-01-26 01:26:00,16.3,4.5,29.68,NW,313,0.0,0.0,59,0.00,,,0.00,VWS V14.01,2013-01-26 06:26:00,
2013-01-26 01:31:00,16.2,4.4,29.68,NW,313,0.0,0.0,59,0.00,,,0.00,VWS V14.01,2013-01-26 06:31:00,
2013-01-26 01:36:00,16.0,4.2,29.68,NW,313,0.0,0.0,59,0.00,,,0.00,VWS V14.01,2013-01-26 06:36:00,
2013-01-26 01:41:00,15.8,4.4,29.68,NW,313,0.0,0.0,60,0.00,,,0.00,VWS V14.01,2013-01-26 06:41:00,
2013-01-26 01:46:00,15.3,3.9,29.68,NW,313,0.0,0.0,60,0.00,,,0.00,VWS V14.01,2013-01-26 06:46:00,
2013-01-26 01:51:00,15.1,3.7,29.68,NW,313,0.0,0.0,60,0.00,,,0.00,VWS V14.01,2013-01-26 06:51:00,
2013-01-26 01:56:00,14.9,3.5,29.68,NW,313,0.0,0.0,60,0.00,,,0.00,VWS V14.01,2013-01-26 06:56:00,
2013-01-26 02:01:00,14.5,3.2,29.68,NW,313,0.0,0.0,60,0.00,,,0.00,VWS V14.01,2013-01-26 07:01:00,
2013-01-26 02:06:00,14.5,3.2,29.68,NW,313,0.0,0.0,60,0.00,,,0.00,VWS V14.01,2013-01-26 07:06:00,
2013-01-26 02:11:00,14.2,2.9,29.65,NW,313,0.0,0.0,60,0.00,,,0.00,VWS V14.01,2013-01-26 07:11:00,
2013-01-26 02:16:00,14.0,2.7,29.65,NW,313,0.0,0.0,60,0.00,,,0.00,VWS V14.01,2013-01-26 07:16:00,
2013-01-26 02:21:00,13.8,2.5,29.65,NW,313,0.0,0.0,60,0.00,,,0.00,VWS V14.01,2013-01-26 07:21:00,
2013-01-26 02:26:00,13.6,2.3,29.65,NW,313,0.0,0.0,60,0.00,,,0.00,VWS V14.01,2013-01-26 07:26:00,
2013-01-26 02:31:00,13.5,2.2,29.65,NW,313,0.0,0.0,60,0.00,,,0.00,VWS V14.01,2013-01-26 07:31:00,
2013-01-26 02:36:00,13.3,2.0,29.65,NW,313,0.0,0.0,60,0.00,,,0.00,VWS V14.01,2013-01-26 07:36:00,
2013-01-26 02:41:00,12.9,1.7,29.65,NW,313,0.0,0.0,60,0.00,,,0.00,VWS V14.01,2013-01-26 07:41:00,
2013-01-26 02:46:00,12.9,1.7,29.65,NW,313,0.0,0.0,60,0.00,,,0.00,VWS V14.01,2013-01-26 07:46:00,
2013-01-26 02:51:00,12.7,1.5,29.65,NW,313,0.0,0.0,60,0.00,,,0.00,VWS V14.01,2013-01-26 07:51:00,
2013-01-26 02:56:00,12.6,1.3,29.65,NW,313,0.0,0.0,60,0.00,,,0.00,VWS V14.01,2013-01-26 07:56:00,
2013-01-26 03:01:00,12.4,1.1,29.65,NW,313,0.0,0.0,60,0.00,,,0.00,VWS V14.01,2013-01-26 08:01:00,
2013-01-26 03:06:00,12.2,1.0,29.65,NW,313,0.0,0.0,60,0.00,,,0.00,VWS V14.01,2013-01-26 08:06:00,
2013-01-26 03:11:00,12.0,0.8,29.65,NW,313,0.0,0.0,60,0.00,,,0.00,VWS V14.01,2013-01-26 08:11:00,
2013-01-26 03:16:00,11.8,0.6,29.65,NW,313,0.0,0.0,60,0.00,,,0.00,VWS V14.01,2013-01-26 08:16:00,
2013-01-26 03:21:00,11.8,0.6,29.65,NW,313,0.0,0.0,60,0.00,,,0.00,VWS V14.01,2013-01-26 08:21:00,
2013-01-26 03:26:00,11.7,0.5,29.65,NW,313,0.0,0.0,60,0.00,,,0.00,VWS V14.01,2013-01-26 08:26:00,
2013-01-26 03:31:00,11.3,0.1,29.65,NW,313,0.0,0.0,60,0.00,,,0.00,VWS V14.01,2013-01-26 08:31:00,
2013-01-26 03:36:00,11.3,0.1,29.65,NW,313,0.0,0.0,60,0.00,,,0.00,VWS V14.01,2013-01-26 08:36:00,
2013-01-26 03:41:00,11.1,0.0,29.65,NW,313,0.0,0.0,60,0.00,,,0.00,VWS V14.01,2013-01-26 08:41:00,
2013-01-26 03:46:00,10.9,-0.2,29.65,NW,313,0.0,0.0,60,0.00,,,0.00,VWS V14.01,2013-01-26 08:46:00,
2013-01-26 03:51:00,10.9,-0.2,29.65,NW,313,0.0,0.0,60,0.00,,,0.00,VWS V14.01,2013-01-26 08:51:00,
2013-01-26 03:56:00,10.8,-0.4,29.65,NW,313,0.0,0.0,60,0.00,,,0.00,VWS V14.01,2013-01-26 08:56:00,
2013-01-26 04:01:00,10.6,-0.6,29.65,NW,313,0.0,0.0,60,0.00,,,0.00,VWS V14.01,2013-01-26 09:01:00,
2013-01-26 04:06:00,10.6,-0.6,29.65,NW,313,0.0,0.0,60,0.00,,,0.00,VWS V14.01,2013-01-26 09:06:00,
2013-01-26 04:11:00,10.2,-0.9,29.65,NW,313,0.0,0.0,60,0.00,,,0.00,VWS V14.01,2013-01-26 09:11:00,
2013-01-26 04:16:00,10.2,-0.9,29.65,NW,313,0.0,0.0,60,0.00,,,0.00,VWS V14.01,2013-01-26 09:16:00,
2013-01-26 04:21:00,10.0,-1.1,29.65,NW,313,0.0,0.0,60,0.00,,,0.00,VWS V14.01,2013-01-26 09:21:00,
2013-01-26 04:26:00,10.0,-1.1,29.65,NW,313,0.0,0.0,60,0.00,,,0.00,VWS V14.01,2013-01-26 09:26:00,
2013-01-26 04:31:00,9.7,-1.4,29.65,NW,313,0.0,0.0,60,0.00,,,0.00,VWS V14.01,2013-01-26 09:31:00,
2013-01-26 04:36:00,9.7,-1.4,29.65,NW,313,0.0,0.0,60,0.00,,,0.00,VWS V14.01,2013-01-26 09:36:00,
2013-01-26 04:41:00,9.7,-1.4,29.65,NW,313,0.0,0.0,60,0.00,,,0.00,VWS V14.01,2013-01-26 09:41:00,
2013-01-26 04:46:00,9.7,-1.4,29.65,NW,313,0.0,0.0,60,0.00,,,0.00,VWS V14.01,2013-01-26 09:46:00,
2013-01-26 04:51:00,9.3,-1.7,29.65,NW,313,0.0,0.0,60,0.00,,,0.00,VWS V14.01,2013-01-26 09:51:00,
2013-01-26 04:56:00,9.1,-1.9,29.65,NW,313,0.0,0.0,60,0.00,,,0.00,VWS V14.01,2013-01-26 09:56:00,
2013-01-26 05:01:00,9.1,-1.9,29.65,NW,313,0.0,0.0,60,0.00,,,0.00,VWS V14.01,2013-01-26 10:01:00,
2013-01-26 05:06:00,9.1,-1.9,29.65,NW,313,0.0,0.0,60,0.00,,,0.00,VWS V14.01,2013-01-26 10:06:00,
2013-01-26 05:11:00,9.1,-1.9,29.65,NW,313,0.0,0.0,60,0.00,,,0.00,VWS V14.01,2013-01-26 10:11:00,
2013-01-26 05:16:00,8.6,-2.4,29.65,NW,313,0.0,0.0,60,0.00,,,0.00,VWS V14.01,2013-01-26 10:16:00,
2013-01-26 05:21:00,8.4,-2.6,29.65,NW,313,0.0,0.0,60,0.00,,,0.00,VWS V14.01,2013-01-26 10:21:00,
2013-01-26 05:26:00,8.4,-2.6,29.65,NW,313,0.0,0.0,60,0.00,,,0.00,VWS V14.01,2013-01-26 10:26:00,
2013-01-26 05:31:00,8.1,-2.9,29.65,NW,313,0.0,0.0,60,0.00,,,0.00,VWS V14.01,2013-01-26 10:31:00,
2013-01-26 05:36:00,8.1,-2.9,29.65,NW,313,0.0,0.0,60,0.00,,,0.00,VWS V14.01,2013-01-26 10:36:00,
2013-01-26 05:41:00,8.1,-2.9,29.65,NW,313,0.0,0.0,60,0.00,,,0.00,VWS V14.01,2013-01-26 10:41:00,
2013-01-26 05:46:00,7.9,-3.1,29.65,NW,313,0.0,0.0,60,0.00,,,0.00,VWS V14.01,2013-01-26 10:46:00,
2013-01-26 05:51:00,7.9,-3.1,29.65,NW,313,0.0,0.0,60,0.00,,,0.00,VWS V14.01,2013-01-26 10:51:00,
2013-01-26 05:56:00,7.9,-3.1,29.65,NW,313,0.0,0.0,60,0.00,,,0.00,VWS V14.01,2013-01-26 10:56:00,
2013-01-26 06:01:00,7.3,-3.6,29.65,NW,313,0.0,0.0,60,0.00,,,0.00,VWS V14.01,2013-01-26 11:01:00,
2013-01-26 06:06:00,7.3,-3.6,29.65,NW,313,0.0,0.0,60,0.00,,,0.00,VWS V14.01,2013-01-26 11:06:00,
2013-01-26 06:11:00,7.3,-3.6,29.65,NW,313,0.0,0.0,60,0.00,,,0.00,VWS V14.01,2013-01-26 11:11:00,
2013-01-26 06:16:00,7.3,-3.6,29.65,NW,313,0.0,0.0,60,0.00,,,0.00,VWS V14.01,2013-01-26 11:16:00,
2013-01-26 06:20:00,7.3,-3.6,29.68,NW,313,0.0,0.0,60,0.00,,,0.00,VWS V14.01,2013-01-26 11:20:00,
2013-01-26 06:25:00,7.2,-3.8,29.68,NW,313,0.0,0.0,60,0.00,,,0.00,VWS V14.01,2013-01-26 11:25:00,
2013-01-26 06:30:00,7.0,-4.0,29.68,NW,313,0.0,0.0,60,0.00,,,0.00,VWS V14.01,2013-01-26 11:30:00,
2013-01-26 06:35:00,7.0,-4.0,29.68,NW,313,0.0,0.0,60,0.00,,,0.00,VWS V14.01,2013-01-26 11:35:00,
2013-01-26 06:40:00,6.8,-4.1,29.68,NW,313,0.0,0.0,60,0.00,,,0.00,VWS V14.01,2013-01-26 11:40:00,
2013-01-26 06:45:00,6.8,-4.1,29.68,NW,313,0.0,0.0,60,0.00,,,0.00,VWS V14.01,2013-01-26 11:45:00,
2013-01-26 06:50:00,6.8,-4.1,29.68,NW,313,0.0,0.0,60,0.00,,,0.00,VWS V14.01,2013-01-26 11:50:00,
2013-01-26 06:55:00,6.8,-4.1,29.68,NW,313,0.0,0.0,60,0.00,,,0.00,VWS V14.01,2013-01-26 11:55:00,
2013-01-26 07:00:00,6.6,-4.3,29.68,NW,313,0.0,0.0,60,0.00,,,0.00,VWS V14.01,2013-01-26 12:00:00,
2013-01-26 07:05:00,6.8,-4.1,29.68,NW,313,0.0,0.0,60,0.00,,,0.00,VWS V14.01,2013-01-26 12:05:00,
2013-01-26 07:10:00,6.8,-4.1,29.68,NW,313,0.0,0.0,60,0.00,,,0.00,VWS V14.01,2013-01-26 12:10:00,
2013-01-26 07:15:00,7.0,-4.0,29.68,NW,313,0.0,0.0,60,0.00,,,0.00,VWS V14.01,2013-01-26 12:15:00,
2013-01-26 07:20:00,7.2,-3.8,29.68,NW,313,0.0,0.0,60,0.00,,,0.00,VWS V14.01,2013-01-26 12:20:00,
2013-01-26 07:25:00,7.2,-3.8,29.68,NW,313,0.0,0.0,60,0.00,,,0.00,VWS V14.01,2013-01-26 12:25:00,
2013-01-26 07:30:00,7.7,-3.3,29.68,NW,313,0.0,0.0,60,0.00,,,0.00,VWS V14.01,2013-01-26 12:30:00,
2013-01-26 07:35:00,8.1,-2.9,29.68,NW,313,0.0,0.0,60,0.00,,,0.00,VWS V14.01,2013-01-26 12:35:00,
2013-01-26 07:40:00,8.8,-2.3,29.68,NW,313,0.0,0.0,60,0.00,,,0.00,VWS V14.01,2013-01-26 12:40:00,
2013-01-26 07:45:00,8.8,-2.3,29.68,NW,313,0.0,0.0,60,0.00,,,0.00,VWS V14.01,2013-01-26 12:45:00,
2013-01-26 07:50:00,10.0,-1.1,29.68,NW,313,0.0,0.0,60,0.00,,,0.00,VWS V14.01,2013-01-26 12:50:00,
2013-01-26 07:55:00,11.8,0.6,29.71,NW,313,0.0,0.0,60,0.00,,,0.00,VWS V14.01,2013-01-26 12:55:00,
2013-01-26 08:00:00,12.4,1.1,29.71,NW,314,0.0,0.0,60,0.00,,,0.00,VWS V14.01,2013-01-26 13:00:00,
2013-01-26 08:05:00,12.7,1.5,29.71,SW,231,0.0,0.0,60,0.00,,,0.00,VWS V14.01,2013-01-26 13:05:00,
2013-01-26 08:10:00,12.7,1.5,29.71,SW,231,0.0,0.0,60,0.00,,,0.00,VWS V14.01,2013-01-26 13:10:00,
2013-01-26 08:15:00,14.2,6.8,29.71,SW,216,0.0,0.0,72,0.00,,,0.00,VWS V14.01,2013-01-26 13:15:00,
2013-01-26 08:20:00,14.2,6.8,29.71,West,265,0.0,0.0,72,0.00,,,0.00,VWS V14.01,2013-01-26 13:20:00,
2013-01-26 08:25:00,14.7,7.0,29.71,West,269,0.0,0.0,71,0.00,,,0.00,VWS V14.01,2013-01-26 13:25:00,
2013-01-26 08:30:00,15.4,7.4,29.71,West,271,0.0,0.0,70,0.00,,,0.00,VWS V14.01,2013-01-26 13:30:00,
2013-01-26 08:35:00,15.8,7.1,29.71,NNE,32,0.0,0.0,68,0.00,,,0.00,VWS V14.01,2013-01-26 13:35:00,
2013-01-26 08:40:00,15.8,7.1,29.71,SW,229,0.0,0.0,68,0.00,,,0.00,VWS V14.01,2013-01-26 13:40:00,
2013-01-26 08:45:00,17.1,6.7,29.71,West,265,0.0,0.0,63,0.00,,,0.00,VWS V14.01,2013-01-26 13:45:00,
2013-01-26 08:50:00,17.4,4.8,29.71,NNW,334,0.0,0.0,57,0.00,,,0.00,VWS V14.01,2013-01-26 13:50:00,
2013-01-26 08:55:00,17.4,4.0,29.71,NE,34,0.0,0.0,55,0.00,,,0.00,VWS V14.01,2013-01-26 13:55:00,
2013-01-26 09:00:00,17.8,3.6,29.71,NW,325,0.0,0.0,53,0.00,,,0.00,VWS V14.01,2013-01-26 14:00:00,
2013-01-26 09:05:00,18.1,3.9,29.71,SSW,205,0.0,0.0,53,0.00,,,0.00,VWS V14.01,2013-01-26 14:05:00,
2013-01-26 09:10:00,19.0,3.5,29.71,WNW,286,0.0,0.0,50,0.00,,,0.00,VWS V14.01,2013-01-26 14:10:00,
2013-01-26 09:15:00,18.9,2.0,29.71,NW,316,2.7,2.7,47,0.00,,,0.00,VWS V14.01,2013-01-26 14:15:00,
2013-01-26 09:20:00,18.9,2.0,29.71,NW,317,2.7,2.7,47,0.00,,,0.00,VWS V14.01,2013-01-26 14:20:00,
2013-01-26 09:25:00,18.9,2.0,29.71,WSW,252,0.0,0.0,47,0.00,,,0.00,VWS V14.01,2013-01-26 14:25:00,
2013-01-26 09:30:00,18.9,2.0,29.71,NW,321,0.0,0.0,47,0.00,,,0.00,VWS V14.01,2013-01-26 14:30:00,
2013-01-26 09:35:00,20.8,3.8,29.71,SSW,197,0.0,0.0,47,0.00,,,0.00,VWS V14.01,2013-01-26 14:35:00,
2013-01-26 09:40:00,20.8,3.8,29.71,NW,318,3.1,3.1,47,0.00,,,0.00,VWS V14.01,2013-01-26 14:40:00,
2013-01-26 09:45:00,20.8,3.8,29.71,WSW,250,0.0,0.0,47,0.00,,,0.00,VWS V14.01,2013-01-26 14:45:00,
2013-01-26 09:50:00,20.8,3.8,29.71,SW,222,0.0,0.0,47,0.00,,,0.00,VWS V14.01,2013-01-26 14:50:00,
2013-01-26 09:55:00,20.8,3.8,29.71,NNW,335,0.0,0.0,47,0.00,,,0.00,VWS V14.01,2013-01-26 14:55:00,
2013-01-26 10:00:00,21.4,2.9,29.71,WSW,251,0.0,3.6,44,0.00,,,0.00,VWS V14.01,2013-01-26 15:00:00,
2013-01-26 10:05:00,21.4,2.4,29.71,WSW,252,2.2,2.2,43,0.00,,,0.00,VWS V14.01,2013-01-26 15:05:00,
2013-01-26 10:10:00,21.6,3.0,29.71,SE,144,0.0,0.0,44,0.00,,,0.00,VWS V14.01,2013-01-26 15:10:00,
2013-01-26 10:15:00,21.7,2.7,29.71,NNW,333,0.0,2.7,43,0.00,,,0.00,VWS V14.01,2013-01-26 15:15:00,
2013-01-26 10:20:00,21.9,2.9,29.71,WSW,257,4.0,4.0,43,0.00,,,0.00,VWS V14.01,2013-01-26 15:20:00,
2013-01-26 10:25:00,21.9,2.9,29.71,WNW,295,0.0,2.7,43,0.00,,,0.00,VWS V14.01,2013-01-26 15:25:00,
2013-01-26 10:30:00,22.1,3.0,29.71,North,353,0.0,0.0,43,0.00,,,0.00,VWS V14.01,2013-01-26 15:30:00,
2013-01-26 10:35:00,22.6,3.5,29.71,West,277,2.7,2.7,43,0.00,,,0.00,VWS V14.01,2013-01-26 15:35:00,
2013-01-26 10:40:00,22.8,3.7,29.71,WNW,295,3.6,3.6,43,0.00,,,0.00,VWS V14.01,2013-01-26 15:40:00,
2013-01-26 10:45:00,22.6,3.5,29.71,ESE,102,4.9,4.9,43,0.00,,,0.00,VWS V14.01,2013-01-26 15:45:00,
2013-01-26 10:50:00,22.5,3.4,29.71,NE,45,3.6,3.6,43,0.00,,,0.00,VWS V14.01,2013-01-26 15:50:00,
2013-01-26 10:55:00,22.6,3.5,29.71,West,264,2.2,2.2,43,0.00,,,0.00,VWS V14.01,2013-01-26 15:55:00,
2013-01-26 11:00:00,22.6,3.0,29.71,West,267,2.7,2.7,42,0.00,,,0.00,VWS V14.01,2013-01-26 16:00:00,
2013-01-26 11:05:00,22.8,3.2,29.71,West,261,0.0,2.2,42,0.00,,,0.00,VWS V14.01,2013-01-26 16:05:00,
2013-01-26 11:10:00,23.2,3.5,29.71,West,279,3.6,3.6,42,0.00,,,0.00,VWS V14.01,2013-01-26 16:10:00,
2013-01-26 11:15:00,22.6,3.0,29.71,ENE,59,0.0,2.2,42,0.00,,,0.00,VWS V14.01,2013-01-26 16:15:00,
2013-01-26 11:20:00,22.8,3.2,29.71,NNE,17,0.0,2.7,42,0.00,,,0.00,VWS V14.01,2013-01-26 16:20:00,
2013-01-26 11:25:00,23.4,3.7,29.71,West,274,0.0,0.0,42,0.00,,,0.00,VWS V14.01,2013-01-26 16:25:00,
2013-01-26 11:30:00,23.5,3.8,29.71,NE,38,0.0,3.1,42,0.00,,,0.00,VWS V14.01,2013-01-26 16:30:00,
2013-01-26 11:35:00,23.5,3.8,29.71,West,272,0.0,0.0,42,0.00,,,0.00,VWS V14.01,2013-01-26 16:35:00,
2013-01-26 11:40:00,23.5,3.3,29.71,WSW,244,0.0,0.0,41,0.00,,,0.00,VWS V14.01,2013-01-26 16:40:00,
2013-01-26 11:45:00,23.7,4.0,29.71,WNW,286,0.0,0.0,42,0.00,,,0.00,VWS V14.01,2013-01-26 16:45:00,
2013-01-26 11:50:00,23.9,4.2,29.71,NW,304,3.1,3.1,42,0.00,,,0.00,VWS V14.01,2013-01-26 16:50:00,
2013-01-26 11:55:00,23.9,4.2,29.71,NNE,23,2.7,2.7,42,0.00,,,0.00,VWS V14.01,2013-01-26 16:55:00,
2013-01-26 12:00:00,23.7,4.0,29.71,North,357,2.7,2.7,42,0.00,,,0.00,VWS V14.01,2013-01-26 17:00:00,
2013-01-26 12:05:00,23.9,4.2,29.71,East,96,0.0,0.0,42,0.00,,,0.00,VWS V14.01,2013-01-26 17:05:00,
2013-01-26 12:10:00,24.3,4.0,29.71,NE,49,2.7,2.7,41,0.00,,,0.00,VWS V14.01,2013-01-26 17:10:00,
2013-01-26 12:15:00,24.4,3.6,29.71,WNW,285,3.1,4.0,40,0.00,,,0.00,VWS V14.01,2013-01-26 17:15:00,
2013-01-26 12:20:00,24.6,4.3,29.71,NE,42,2.7,3.1,41,0.00,,,0.00,VWS V14.01,2013-01-26 17:20:00,
2013-01-26 12:25:00,25.0,3.5,29.68,SE,124,2.7,2.7,39,0.00,,,0.00,VWS V14.01,2013-01-26 17:25:00,
2013-01-26 12:30:00,25.3,4.4,29.68,ESE,104,0.0,0.0,40,0.00,,,0.00,VWS V14.01,2013-01-26 17:30:00,
2013-01-26 12:35:00,25.5,4.0,29.68,WSW,257,3.6,3.6,39,0.00,,,0.00,VWS V14.01,2013-01-26 17:35:00,
2013-01-26 12:40:00,25.5,4.6,29.68,NW,311,3.1,3.1,40,0.00,,,0.00,VWS V14.01,2013-01-26 17:40:00,
2013-01-26 12:45:00,25.9,4.9,29.68,WNW,296,0.0,0.0,40,0.00,,,0.00,VWS V14.01,2013-01-26 17:45:00,
2013-01-26 12:50:00,25.9,4.3,29.68,NW,318,2.2,2.2,39,0.00,,,0.00,VWS V14.01,2013-01-26 17:50:00,
2013-01-26 12:55:00,26.2,4.7,29.68,West,259,0.0,0.0,39,0.00,,,0.00,VWS V14.01,2013-01-26 17:55:00,
2013-01-26 13:00:00,26.1,3.9,29.68,ESE,119,0.0,0.0,38,0.00,,,0.00,VWS V14.01,2013-01-26 18:00:00,
2013-01-26 13:05:00,26.4,4.3,29.68,NNE,31,0.0,0.0,38,0.00,,,0.00,VWS V14.01,2013-01-26 18:05:00,
2013-01-26 13:10:00,26.4,4.3,29.68,ESE,109,2.2,2.2,38,0.00,,,0.00,VWS V14.01,2013-01-26 18:10:00,
2013-01-26 13:15:00,26.6,3.8,29.68,SSE,150,2.7,2.7,37,0.00,,,0.00,VWS V14.01,2013-01-26 18:15:00,
2013-01-26 13:20:00,26.6,3.8,29.68,NNE,17,0.0,0.0,37,0.00,,,0.00,VWS V14.01,2013-01-26 18:20:00,
2013-01-26 13:25:00,26.6,3.3,29.68,NW,312,2.7,3.1,36,0.00,,,0.00,VWS V14.01,2013-01-26 18:25:00,
2013-01-26 13:30:00,27.0,3.6,29.68,South,179,0.0,0.0,36,0.00,,,0.00,VWS V14.01,2013-01-26 18:30:00,
2013-01-26 13:35:00,27.3,3.3,29.68,ENE,65,2.7,2.7,35,0.00,,,0.00,VWS V14.01,2013-01-26 18:35:00,
2013-01-26 13:40:00,27.3,2.7,29.68,NNW,327,0.0,2.7,34,0.00,,,0.00,VWS V14.01,2013-01-26 18:40:00,
2013-01-26 13:45:00,27.0,2.3,29.68,WNW,301,2.7,3.1,34,0.00,,,0.00,VWS V14.01,2013-01-26 18:45:00,
2013-01-26 13:50:00,26.6,2.0,29.68,North,353,0.0,0.0,34,0.00,,,0.00,VWS V14.01,2013-01-26 18:50:00,
2013-01-26 13:55:00,26.8,2.2,29.68,WNW,292,2.7,3.1,34,0.00,,,0.00,VWS V14.01,2013-01-26 18:55:00,
2013-01-26 14:00:00,26.8,1.5,29.68,WNW,294,3.6,3.6,33,0.00,,,0.00,VWS V14.01,2013-01-26 19:00:00,
2013-01-26 14:05:00,26.2,1.7,29.68,WNW,297,0.0,0.0,34,0.00,,,0.00,VWS V14.01,2013-01-26 19:05:00,
2013-01-26 14:10:00,26.4,1.9,29.68,WNW,292,2.2,2.2,34,0.00,,,0.00,VWS V14.01,2013-01-26 19:10:00,
2013-01-26 14:15:00,26.2,1.7,29.68,WNW,287,4.0,4.0,34,0.00,,,0.00,VWS V14.01,2013-01-26 19:15:00,
2013-01-26 14:20:00,25.9,1.4,29.68,NW,316,3.1,3.1,34,0.00,,,0.00,VWS V14.01,2013-01-26 19:20:00,
2013-01-26 14:25:00,25.7,1.2,29.68,WNW,299,5.8,5.8,34,0.00,,,0.00,VWS V14.01,2013-01-26 19:25:00,
2013-01-26 14:30:00,25.9,1.4,29.68,WNW,302,2.7,2.7,34,0.00,,,0.00,VWS V14.01,2013-01-26 19:30:00,
2013-01-26 14:35:00,26.2,1.7,29.68,SW,227,0.0,0.0,34,0.00,,,0.00,VWS V14.01,2013-01-26 19:35:00,
2013-01-26 14:40:00,26.4,1.9,29.68,WNW,295,2.7,2.7,34,0.00,,,0.00,VWS V14.01,2013-01-26 19:40:00,
2013-01-26 14:45:00,26.1,0.9,29.68,SSE,165,0.0,0.0,33,0.00,,,0.00,VWS V14.01,2013-01-26 19:45:00,
2013-01-26 14:50:00,25.7,0.6,29.71,NW,308,2.2,2.2,33,0.00,,,0.00,VWS V14.01,2013-01-26 19:50:00,
2013-01-26 14:55:00,25.2,0.1,29.71,WNW,283,4.0,4.0,33,0.00,,,0.00,VWS V14.01,2013-01-26 19:55:00,
2013-01-26 15:00:00,24.6,0.3,29.71,NW,304,0.0,0.0,34,0.00,,,0.00,VWS V14.01,2013-01-26 20:00:00,
2013-01-26 15:05:00,24.8,0.4,29.71,West,261,5.4,5.4,34,0.00,,,0.00,VWS V14.01,2013-01-26 20:05:00,
2013-01-26 15:10:00,24.6,-0.4,29.68,West,276,0.0,0.0,33,0.00,,,0.00,VWS V14.01,2013-01-26 20:10:00,
2013-01-26 15:15:00,24.6,-0.4,29.68,WNW,303,3.6,3.6,33,0.00,,,0.00,VWS V14.01,2013-01-26 20:15:00,
2013-01-26 15:20:00,24.4,-0.5,29.68,NW,321,2.2,2.2,33,0.00,,,0.00,VWS V14.01,2013-01-26 20:20:00,
2013-01-26 15:25:00,24.4,-0.5,29.71,West,281,0.0,0.0,33,0.00,,,0.00,VWS V14.01,2013-01-26 20:25:00,
2013-01-26 15:30:00,24.4,-0.5,29.71,West,263,4.0,4.0,33,0.00,,,0.00,VWS V14.01,2013-01-26 20:30:00,
2013-01-26 15:35:00,24.4,0.1,29.71,NNE,27,0.0,0.0,34,0.00,,,0.00,VWS V14.01,2013-01-26 20:35:00,
2013-01-26 15:40:00,24.1,-0.2,29.71,WNW,299,0.0,0.0,34,0.00,,,0.00,VWS V14.01,2013-01-26 20:40:00,
2013-01-26 15:45:00,24.1,-0.2,29.71,South,179,0.0,2.2,34,0.00,,,0.00,VWS V14.01,2013-01-26 20:45:00,
2013-01-26 15:50:00,24.1,-0.2,29.71,SW,228,2.2,3.6,34,0.00,,,0.00,VWS V14.01,2013-01-26 20:50:00,
2013-01-26 15:55:00,24.1,-0.2,29.71,West,260,3.1,3.6,34,0.00,,,0.00,VWS V14.01,2013-01-26 20:55:00,
2013-01-26 16:00:00,23.9,-0.4,29.71,West,259,0.0,0.0,34,0.00,,,0.00,VWS V14.01,2013-01-26 21:00:00,
2013-01-26 16:05:00,23.5,-0.7,29.71,WNW,288,0.0,0.0,34,0.00,,,0.00,VWS V14.01,2013-01-26 21:05:00,
2013-01-26 16:10:00,23.4,-0.9,29.71,WSW,245,2.7,2.7,34,0.00,,,0.00,VWS V14.01,2013-01-26 21:10:00,
2013-01-26 16:15:00,23.2,-1.0,29.71,West,270,0.0,0.0,34,0.00,,,0.00,VWS V14.01,2013-01-26 21:15:00,
2013-01-26 16:20:00,23.2,-1.0,29.74,NW,312,0.0,0.0,34,0.00,,,0.00,VWS V14.01,2013-01-26 21:20:00,
2013-01-26 16:25:00,23.0,-1.2,29.74,West,264,0.0,0.0,34,0.00,,,0.00,VWS V14.01,2013-01-26 21:25:00,
2013-01-26 16:30:00,22.8,-1.3,29.74,WNW,297,0.0,0.0,34,0.00,,,0.00,VWS V14.01,2013-01-26 21:30:00,
2013-01-26 16:35:00,22.6,-1.5,29.74,WNW,287,0.0,0.0,34,0.00,,,0.00,VWS V14.01,2013-01-26 21:35:00,
2013-01-26 16:40:00,22.3,-1.8,29.74,SSW,202,0.0,0.0,34,0.00,,,0.00,VWS V14.01,2013-01-26 21:40:00,
2013-01-26 16:45:00,21.9,-2.1,29.74,WNW,289,0.0,0.0,34,0.00,,,0.00,VWS V14.01,2013-01-26 21:45:00,
2013-01-26 16:50:00,21.7,-2.3,29.74,West,263,0.0,0.0,34,0.00,,,0.00,VWS V14.01,2013-01-26 21:50:00,
2013-01-26 16:55:00,21.6,-2.5,29.74,NW,308,2.7,2.7,34,0.00,,,0.00,VWS V14.01,2013-01-26 21:55:00,
2013-01-26 17:00:00,21.4,-2.6,29.74,WNW,290,0.0,0.0,34,0.00,,,0.00,VWS V14.01,2013-01-26 22:00:00,
2013-01-26 17:05:00,21.2,-2.8,29.74,WNW,295,0.0,0.0,34,0.00,,,0.00,VWS V14.01,2013-01-26 22:05:00,
2013-01-26 17:10:00,21.2,-2.8,29.74,NNW,340,0.0,0.0,34,0.00,,,0.00,VWS V14.01,2013-01-26 22:10:00,
2013-01-26 17:15:00,21.2,-2.8,29.74,SSW,206,0.0,0.0,34,0.00,,,0.00,VWS V14.01,2013-01-26 22:15:00,
2013-01-26 17:20:00,20.5,-3.4,29.74,NNW,340,3.1,3.1,34,0.00,,,0.00,VWS V14.01,2013-01-26 22:20:00,
2013-01-26 17:25:00,20.3,-3.6,29.77,NNW,348,2.7,3.1,34,0.00,,,0.00,VWS V14.01,2013-01-26 22:25:00,
2013-01-26 17:30:00,19.9,-3.9,29.77,North,353,0.0,0.0,34,0.00,,,0.00,VWS V14.01,2013-01-26 22:30:00,
2013-01-26 17:35:00,19.6,-4.2,29.77,South,177,0.0,0.0,34,0.00,,,0.00,VWS V14.01,2013-01-26 22:35:00,
2013-01-26 17:40:00,19.4,-4.4,29.77,West,261,4.9,4.9,34,0.00,,,0.00,VWS V14.01,2013-01-26 22:40:00,
2013-01-26 17:45:00,19.2,-4.5,29.77,East,83,2.7,2.7,34,0.00,,,0.00,VWS V14.01,2013-01-26 22:45:00,
2013-01-26 17:50:00,19.0,-4.7,29.77,NW,305,3.1,5.4,34,0.00,,,0.00,VWS V14.01,2013-01-26 22:50:00,
2013-01-26 17:55:00,18.7,-5.0,29.77,WNW,297,3.6,3.6,34,0.00,,,0.00,VWS V14.01,2013-01-26 22:55:00,
2013-01-26 18:00:00,18.5,-5.2,29.77,North,0,0.0,0.0,34,0.00,,,0.00,VWS V14.01,2013-01-26 23:00:00,
2013-01-26 18:05:00,18.3,-5.3,29.77,NW,319,0.0,0.0,34,0.00,,,0.00,VWS V14.01,2013-01-26 23:05:00,
2013-01-26 18:10:00,18.1,-5.5,29.80,West,276,2.7,3.1,34,0.00,,,0.00,VWS V14.01,2013-01-26 23:10:00,
2013-01-26 18:15:00,18.1,-5.5,29.80,NW,319,4.9,4.9,34,0.00,,,0.00,VWS V14.01,2013-01-26 23:15:00,
2013-01-26 18:20:00,18.3,-5.3,29.80,NW,322,0.0,0.0,34,0.00,,,0.00,VWS V14.01,2013-01-26 23:20:00,
2013-01-26 18:25:00,18.3,-5.3,29.80,NW,305,0.0,0.0,34,0.00,,,0.00,VWS V14.01,2013-01-26 23:25:00,
2013-01-26 18:30:00,18.3,-5.3,29.80,WNW,288,3.1,3.1,34,0.00,,,0.00,VWS V14.01,2013-01-26 23:30:00,
2013-01-26 18:35:00,18.1,-5.5,29.80,North,11,0.0,0.0,34,0.00,,,0.00,VWS V14.01,2013-01-26 23:35:00,
2013-01-26 18:40:00,18.1,-5.5,29.80,WNW,283,3.6,3.6,34,0.00,,,0.00,VWS V14.01,2013-01-26 23:40:00,
2013-01-26 18:45:00,18.1,-5.5,29.80,SE,127,3.1,3.1,34,0.00,,,0.00,VWS V14.01,2013-01-26 23:45:00,
2013-01-26 18:50:00,18.1,-5.5,29.80,WNW,284,2.2,2.2,34,0.00,,,0.00,VWS V14.01,2013-01-26 23:50:00,
2013-01-26 18:55:00,18.0,-5.7,29.80,WNW,293,0.0,0.0,34,0.00,,,0.00,VWS V14.01,2013-01-26 23:55:00,
2013-01-26 19:00:00,17.8,-5.8,29.80,SE,124,0.0,0.0,34,0.00,,,0.00,VWS V14.01,2013-01-27 00:00:00,
2013-01-26 19:05:00,17.6,-6.0,29.80,NW,304,0.0,0.0,34,0.00,,,0.00,VWS V14.01,2013-01-27 00:05:00,
2013-01-26 19:10:00,17.4,-6.1,29.80,ESE,122,0.0,0.0,34,0.00,,,0.00,VWS V14.01,2013-01-27 00:10:00,
2013-01-26 19:15:00,17.4,-6.1,29.80,NW,312,2.7,2.7,34,0.00,,,0.00,VWS V14.01,2013-01-27 00:15:00,
2013-01-26 19:20:00,17.1,-6.5,29.80,NNE,27,0.0,0.0,34,0.00,,,0.00,VWS V14.01,2013-01-27 00:20:00,
2013-01-26 19:25:00,16.9,-6.6,29.80,SW,230,0.0,0.0,34,0.00,,,0.00,VWS V14.01,2013-01-27 00:25:00,
2013-01-26 19:30:00,16.9,-6.6,29.80,WNW,291,2.7,3.6,34,0.00,,,0.00,VWS V14.01,2013-01-27 00:30:00,
2013-01-26 19:35:00,16.9,-6.6,29.83,NNE,12,2.7,2.7,34,0.00,,,0.00,VWS V14.01,2013-01-27 00:35:00,
2013-01-26 19:40:00,16.7,-6.2,29.83,NNE,32,0.0,0.0,35,0.00,,,0.00,VWS V14.01,2013-01-27 00:40:00,
2013-01-26 19:45:00,16.7,-6.2,29.83,NW,315,0.0,0.0,35,0.00,,,0.00,VWS V14.01,2013-01-27 00:45:00,
2013-01-26 19:50:00,16.5,-6.3,29.83,NW,308,3.1,3.1,35,0.00,,,0.00,VWS V14.01,2013-01-27 00:50:00,
2013-01-26 19:55:00,16.5,-6.3,29.83,NW,311,0.0,0.0,35,0.00,,,0.00,VWS V14.01,2013-01-27 00:55:00,
2013-01-26 20:00:00,16.3,-6.5,29.83,NW,321,0.0,0.0,35,0.00,,,0.00,VWS V14.01,2013-01-27 01:00:00,
2013-01-26 20:05:00,16.2,-6.7,29.83,ENE,68,0.0,0.0,35,0.00,,,0.00,VWS V14.01,2013-01-27 01:05:00,
2013-01-26 20:10:00,16.2,-6.7,29.83,NNW,327,5.8,5.8,35,0.00,,,0.00,VWS V14.01,2013-01-27 01:10:00,
2013-01-26 20:15:00,16.0,-6.8,29.83,NE,52,0.0,0.0,35,0.00,,,0.00,VWS V14.01,2013-01-27 01:15:00,
2013-01-26 20:20:00,16.0,-6.8,29.83,North,353,2.7,2.7,35,0.00,,,0.00,VWS V14.01,2013-01-27 01:20:00,
2013-01-26 20:25:00,16.0,-6.8,29.83,ESE,116,0.0,0.0,35,0.00,,,0.00,VWS V14.01,2013-01-27 01:25:00,
2013-01-26 20:30:00,15.6,-6.6,29.83,NNE,28,2.7,3.1,36,0.00,,,0.00,VWS V14.01,2013-01-27 01:30:00,
2013-01-26 20:35:00,15.6,-6.6,29.83,NW,307,3.6,3.6,36,0.00,,,0.00,VWS V14.01,2013-01-27 01:35:00,
2013-01-26 20:40:00,15.4,-6.7,29.83,West,264,0.0,0.0,36,0.00,,,0.00,VWS V14.01,2013-01-27 01:40:00,
2013-01-26 20:45:00,15.4,-6.7,29.83,NW,317,0.0,0.0,36,0.00,,,0.00,VWS V14.01,2013-01-27 01:45:00,
2013-01-26 20:50:00,15.3,-6.9,29.83,WNW,286,0.0,0.0,36,0.00,,,0.00,VWS V14.01,2013-01-27 01:50:00,
2013-01-26 20:55:00,15.1,-7.1,29.83,NNE,20,0.0,0.0,36,0.00,,,0.00,VWS V14.01,2013-01-27 01:55:00,
2013-01-26 21:00:00,14.9,-7.2,29.83,West,271,2.2,2.2,36,0.00,,,0.00,VWS V14.01,2013-01-27 02:00:00,
2013-01-26 21:05:00,14.9,-7.2,29.83,WNW,285,0.0,0.0,36,0.00,,,0.00,VWS V14.01,2013-01-27 02:05:00,
2013-01-26 21:10:00,14.7,-7.4,29.83,NW,312,0.0,0.0,36,0.00,,,0.00,VWS V14.01,2013-01-27 02:10:00,
2013-01-26 21:15:00,14.5,-7.5,29.85,WSW,243,2.7,2.7,36,0.00,,,0.00,VWS V14.01,2013-01-27 02:15:00,
2013-01-26 21:20:00,14.5,-7.5,29.85,West,280,0.0,0.0,36,0.00,,,0.00,VWS V14.01,2013-01-27 02:20:00,
2013-01-26 21:25:00,14.5,-7.5,29.85,WNW,289,0.0,0.0,36,0.00,,,0.00,VWS V14.01,2013-01-27 02:25:00,
2013-01-26 21:30:00,14.4,-7.7,29.85,WNW,289,0.0,0.0,36,0.00,,,0.00,VWS V14.01,2013-01-27 02:30:00,
2013-01-26 21:35:00,14.4,-7.1,29.85,West,280,0.0,0.0,37,0.00,,,0.00,VWS V14.01,2013-01-27 02:35:00,
2013-01-26 21:40:00,14.4,-7.1,29.85,NW,308,0.0,0.0,37,0.00,,,0.00,VWS V14.01,2013-01-27 02:40:00,
2013-01-26 21:45:00,14.4,-7.1,29.85,WSW,253,0.0,0.0,37,0.00,,,0.00,VWS V14.01,2013-01-27 02:45:00,
2013-01-26 21:50:00,14.4,-7.1,29.85,SSE,157,0.0,0.0,37,0.00,,,0.00,VWS V14.01,2013-01-27 02:50:00,
2013-01-26 21:55:00,14.2,-7.3,29.85,WNW,284,0.0,0.0,37,0.00,,,0.00,VWS V14.01,2013-01-27 02:55:00,
2013-01-26 22:00:00,13.8,-7.6,29.85,WNW,283,0.0,0.0,37,0.00,,,0.00,VWS V14.01,2013-01-27 03:00:00,
2013-01-26 22:05:00,13.8,-7.6,29.85,WNW,296,2.7,2.7,37,0.00,,,0.00,VWS V14.01,2013-01-27 03:05:00,
2013-01-26 22:10:00,14.0,-6.9,29.85,NNW,343,0.0,0.0,38,0.00,,,0.00,VWS V14.01,2013-01-27 03:10:00,
2013-01-26 22:15:00,14.2,-7.3,29.85,NW,322,2.2,2.7,37,0.00,,,0.00,VWS V14.01,2013-01-27 03:15:00,
2013-01-26 22:20:00,14.4,-7.1,29.85,NW,310,0.0,0.0,37,0.00,,,0.00,VWS V14.01,2013-01-27 03:20:00,
2013-01-26 22:25:00,14.4,-7.1,29.85,WSW,245,0.0,0.0,37,0.00,,,0.00,VWS V14.01,2013-01-27 03:25:00,
2013-01-26 22:30:00,14.2,-7.3,29.85,NNW,346,0.0,0.0,37,0.00,,,0.00,VWS V14.01,2013-01-27 03:30:00,
2013-01-26 22:35:00,14.2,-6.8,29.85,WNW,291,3.6,3.6,38,0.00,,,0.00,VWS V14.01,2013-01-27 03:35:00,
2013-01-26 22:40:00,14.2,-6.8,29.85,WNW,297,0.0,5.8,38,0.00,,,0.00,VWS V14.01,2013-01-27 03:40:00,
2013-01-26 22:45:00,14.2,-6.8,29.85,NW,304,0.0,0.0,38,0.00,,,0.00,VWS V14.01,2013-01-27 03:45:00,
2013-01-26 22:50:00,14.4,-6.6,29.85,WNW,292,0.0,0.0,38,0.00,,,0.00,VWS V14.01,2013-01-27 03:50:00,
2013-01-26 22:55:00,14.2,-6.8,29.88,WNW,303,0.0,2.2,38,0.00,,,0.00,VWS V14.01,2013-01-27 03:55:00,
2013-01-26 23:00:00,14.2,-6.8,29.88,NW,310,3.1,3.6,38,0.00,,,0.00,VWS V14.01,2013-01-27 04:00:00,
2013-01-26 23:05:00,14.2,-6.8,29.88,WNW,299,4.0,4.0,38,0.00,,,0.00,VWS V14.01,2013-01-27 04:05:00,
2013-01-26 23:10:00,14.2,-6.2,29.88,WNW,302,3.1,5.8,39,0.00,,,0.00,VWS V14.01,2013-01-27 04:10:00,
2013-01-26 23:15:00,14.2,-6.2,29.88,NW,321,4.9,4.9,39,0.00,,,0.00,VWS V14.01,2013-01-27 04:15:00,
2013-01-26 23:20:00,14.0,-6.4,29.88,WNW,302,0.0,0.0,39,0.00,,,0.00,VWS V14.01,2013-01-27 04:20:00,
2013-01-26 23:25:00,13.8,-6.6,29.88,WNW,301,0.0,0.0,39,0.00,,,0.00,VWS V14.01,2013-01-27 04:25:00,
2013-01-26 23:30:00,13.6,-6.7,29.88,ESE,111,0.0,0.0,39,0.00,,,0.00,VWS V14.01,2013-01-27 04:30:00,
2013-01-26 23:35:00,13.6,-6.7,29.88,SE,131,0.0,2.2,39,0.00,,,0.00,VWS V14.01,2013-01-27 04:35:00,
2013-01-26 23:40:00,13.5,-6.9,29.88,ESE,117,0.0,2.2,39,0.00,,,0.00,VWS V14.01,2013-01-27 04:40:00,
2013-01-26 23:45:00,13.5,-6.9,29.88,SE,143,0.0,0.0,39,0.00,,,0.00,VWS V14.01,2013-01-27 04:45:00,
2013-01-26 23:50:00,13.3,-7.0,29.88,WSW,248,0.0,0.0,39,0.00,,,0.00,VWS V14.01,2013-01-27 04:50:00,
2013-01-26 23:55:00,13.3,-7.0,29.88,ESE,105,0.0,0.0,39,0.00,,,0.00,VWS V14.01,2013-01-27 04:55:00,